Hourly Data Report for May 11, 2021

TORONTO CITY
ONTARIO
Current Station Operator: ECCC - MSC

43°40'00.000" N
79°24'00.000" W
112.50 m
6158355
71508
XTO

Download Data

Hourly Data (May 2021)
Hourly Data Report for May 11, 2021
TIME
LST
Temp Definition
°C
Dew Point Definition
°C
Rel Hum Definition
%
Precip. Amount Definition
mm

Wind Dir Definition
10's deg

Wind Spd Definition
km/h
Visibility Definition
km
Stn Press Definition
kPa
Hmdx Definition


Wind Chill Definition


Weather Definition


00:00 5.7 -1.7 59 0.0       100.42     LegendNANA
01:00 5.1 -1.2 64 0.0       100.39     LegendNANA
02:00 4.7 -1.3 65 0.0       100.36     LegendNANA
03:00 4.2 -1.4 67 0.0       100.38     LegendNANA
04:00 4.0 -0.9 71 0.0       100.42     LegendNANA
05:00 4.2 -0.1 74 0.0       100.42     LegendNANA
06:00 4.1 -0.1 74 0.0       100.48     LegendNANA
07:00 5.7 -0.1 66 0.0       100.49     LegendNANA
08:00 7.3 -0.6 57 0.0       100.54     LegendNANA
09:00 8.6 0.7 57 0.0       100.56     LegendNANA
10:00 8.7 -0.9 51 0.0       100.58     LegendNANA
11:00 11.0 0.8 49 0.0       100.57     LegendNANA
12:00 10.2 -1.2 45 0.0       100.56     LegendNANA
13:00 10.2 -1.3 45 0.0       100.59     LegendNANA
14:00 11.9 -0.6 42 0.0       100.56     LegendNANA
15:00 10.3 -1.3 44 0.0       100.59     LegendNANA
16:00 10.4 -1.3 44 0.0       100.59     LegendNANA
17:00 10.5 -1.1 45 0.0       100.65     LegendNANA
18:00 9.0 -1.2 49 0.0       100.71     LegendNANA
19:00 8.5 -0.5 53 0.0       100.74     LegendNANA
20:00 7.7 0.3 59 0.0       100.82     LegendNANA
21:00 7.4 0.7 63 0.0       100.87     LegendNANA
22:00 7.1 1.4 67 0.0       100.93     LegendNANA
23:00 7.1 1.7 68 0.0       100.95     LegendNANA

Notes on Data Quality.

Legend

  • E = Estimated
  • M = Missing
  • NA = Not Available*
  • [empty] = Indicates an unobserved value
Date modified: